Location: Nashua
(41.0787°N, 80.3990°W)
Time: 15:26:41
(UTC+00:00)

Daily predictions for brighter satellites

Satellite Brightness Start Highest point End
(mag) Time Altitude Azimuth Time Altitude Azimuth Time Altitude Azimuth
BREEZE-M DEB (TANK) 4.1 22:43:03 10° NW 22:47:11 44° NNE 22:57:14 10° E
Cosmos 1908 3.4 22:50:46 10° S 22:54:33 53° E 22:58:21 10° NNE
BREEZE-M DEB (TANK) 3.0 22:49:29 10° SW 22:56:36 77° SSE 22:59:20 10° ENE
Cosmos 2228 4.1 22:53:18 10° SSW 22:57:32 50° W 23:01:45 10° N
USA 238 DEB 3.7 22:51:14 10° SSW 22:57:49 68° ESE 23:04:38 10° NE
USA 238 3.7 22:51:20 10° SSW 22:57:56 67° ESE 23:04:44 10° NE
ATLAS 5 CENTAUR R/B 4.3 22:57:30 10° NW 22:58:52 11° NNW 23:00:18 10° N
YAOGAN 6 3.7 22:56:03 10° SE 22:58:59 23° ENE 23:01:54 10° NNE
Unknown 3.6 22:59:14 10° NW 23:02:30 43° NNE 23:05:47 10° ESE
COSMOS 2406 3.7 22:59:56 10° NNW 23:05:39 68° WSW 23:11:19 10° SSE
Ariane Rocket 4.5 23:05:11 10° E 23:08:18 16° ENE 23:11:24 10° NNE
YAOGAN 1 3.4 23:06:42 10° SE 23:10:25 29° ENE 23:14:09 10° N
Meteor 2-10 4.2 23:06:03 10° SSW 23:11:05 74° W 23:16:08 10° N
CZ-4 R/B 1.9 23:09:14 10° SE 23:13:08 39° ENE 23:17:05 10° N
SKYMED 2 3.7 23:09:54 10° NNE 23:14:09 52° E 23:18:23 10° S
Cosmos 1934 Rocket 4.2 23:08:11 10° N 23:14:34 81° W 23:20:56 10° S
Cosmos 1605 Rocket 3.9 23:09:53 10° N 23:16:02 69° E 23:22:04 10° SSE
ASTEX 1 3.4 23:11:10 10° N 23:16:09 75° E 23:21:08 10° S
Lacrosse 5 1.9 23:12:55 10° NW 23:17:56 60° NE 23:22:55 10° ESE
NOSS 3-2 (A) 3.3 23:13:56 10° SSW 23:19:35 78° ESE 23:25:58 10° NE
Cosmos 2278 Rocket 2.7 23:14:07 10° SW 23:19:44 65° WNW 23:25:24 10° NNE
FALCON 9 DEB 3.4 23:16:25 10° NW 23:19:50 51° NE 23:22:41 14° ESE
Cosmos 1461 2.9 23:17:08 10° NNW 23:21:17 88° WSW 23:25:33 10° SSE
BREEZE-M DEB (TANK) 3.7 23:09:28 10° SW 23:24:47 82° SSE 23:28:17 14° ENE
CSL-04 Rocket 3.9 23:20:18 10° SE 23:25:34 49° ENE 23:30:50 10° N
Cosmos 2297 4.0 23:20:57 10° S 23:26:19 45° ESE 23:31:45 10° NE
Cosmos 1727 Rocket 4.0 23:21:46 10° S 23:27:48 61° E 23:33:52 10° NNE
USA 116 3.8 23:24:56 10° NNE 23:28:09 41° E 23:31:41 10° S
Cosmos-2242 4.3 23:25:49 10° SE 23:29:00 20° E 23:32:09 10° NE
Abrixas rocket 3.9 23:27:41 10° WNW 23:30:07 21° N 23:31:56 13° NE
Falcon 9 debris 3.0 23:28:25 10° NW 23:31:52 73° NE 23:34:22 17° ESE
Cosmos 44 3.2 23:30:46 10° SSW 23:35:43 69° ESE 23:40:26 10° NE
FengYun 1-2 T 4.2 23:34:01 10° SSE 23:39:38 85° ENE 23:45:16 10° NNW
Unknown 3.2 23:36:17 10° NW 23:39:47 64° NE 23:41:38 25° ESE
Cosmos 2084 Rocket 3.5 23:35:35 10° NNW 23:39:58 60° NE 23:43:25 15° SE
Cosmos 1300 2.7 23:36:13 10° S 23:39:58 58° E 23:43:43 10° NNE
Cosmos 967 Rocket 4.5 23:33:41 10° NNW 23:40:11 78° ENE 23:46:39 10° SE
Gbstr 26 Del rocket 4.1 23:34:24 10° NW 23:40:29 83° SW 23:47:54 10° SE
Cosmos 1763 Rocket 4.1 23:38:26 10° SSE 23:43:09 34° E 23:47:52 10° NE
NOSS 3-2 (C) 3.3 23:41:11 10° SSW 23:46:52 79° ESE 23:53:17 10° NE
Cosmos 1802 Rocket 4.5 23:41:11 10° N 23:47:07 38° ENE 23:52:57 10° SE
SJ 16-02 2.5 23:44:16 10° N 23:47:33 23° ENE 23:47:33 23° ENE
NOAA 11 4.4 23:43:24 10° SE 23:48:33 46° ENE 23:53:44 10° N
Cosmos 1833 Rocket 3.2 23:44:34 10° NNW 23:50:08 62° WSW 23:55:38 10° S
CZ-2D R/B 3.4 23:53:02 15° SE 23:56:01 50° ENE 23:59:47 10° N
